This is the latest recevied weather packets stored in our database for station/object KU9TRY. If no packets are shown the sender has not sent any weather packets the latest 10 day(s).
| Time | Temp. | Humidity | Pressure | Rain* | Wind** | Luminosity | Snow |
|---|---|---|---|---|---|---|---|
| 1777670355 | 18.89° C | 45% | 1014.2 hPa | 0 mm | - | 156 W/m² | - |
| 1777670052 | 18.33° C | 43% | 1014.1 hPa | 0 mm | - | 165 W/m² | - |
| 1777669750 | 18.89° C | 42% | 1014.1 hPa | 0 mm | - | 180 W/m² | - |
| 1777669446 | 18.89° C | 41% | 1014.1 hPa | 0 mm | - | 182 W/m² | - |
| 1777669143 | 18.89° C | 46% | 1013.9 hPa | 0 mm | - | 192 W/m² | - |
| 1777668840 | 18.89° C | 44% | 1014 hPa | 0 mm | - | 167 W/m² | - |
| 1777668537 | 18.89° C | 44% | 1013.8 hPa | 0 mm | - | 174 W/m² | - |
| 1777668233 | 18.89° C | 44% | 1014.2 hPa | 0 mm | - | 169 W/m² | - |
| 1777667929 | 19.44° C | 45% | 1013.9 hPa | 0 mm | - | 178 W/m² | - |
| 1777667627 | 20° C | 42% | 1014.1 hPa | 0 mm | - | 176 W/m² | - |
| 1777667323 | 19.44° C | 44% | 1014.3 hPa | 0 mm | - | 184 W/m² | - |
| 1777667020 | 19.44° C | 44% | 1014.4 hPa | 0 mm | - | 174 W/m² | - |
| 1777666717 | 19.44° C | 46% | 1014.2 hPa | 0 mm | - | 173 W/m² | - |
| 1777666414 | 19.44° C | 46% | 1014.4 hPa | 0 mm | - | 188 W/m² | - |
| 1777666110 | 20° C | 45% | 1014.6 hPa | 0 mm | - | 214 W/m² | - |
| 1777665808 | 19.44° C | 47% | 1014.6 hPa | 0 mm | - | 216 W/m² | - |
| 1777665506 | 19.44° C | 45% | 1014.7 hPa | 0 mm | - | 205 W/m² | - |
| 1777665201 | 19.44° C | 47% | 1014.9 hPa | 0 mm | - | 214 W/m² | - |
| 1777664897 | 19.44° C | 47% | 1014.7 hPa | 0 mm | - | 202 W/m² | - |
| 1777664594 | 19.44° C | 48% | 1014.8 hPa | 0 mm | - | 183 W/m² | - |
| 1777664290 | 20° C | 44% | 1014.7 hPa | 0 mm | - | 195 W/m² | - |
| 1777663989 | 20° C | 44% | 1014.9 hPa | 0 mm | - | 193 W/m² | - |
| 1777663686 | 20° C | 44% | 1014.8 hPa | 0 mm | - | 227 W/m² | - |
| 1777663382 | 20° C | 42% | 1015 hPa | 0 mm | - | 199 W/m² | - |
| 1777663079 | 20° C | 44% | 1015.1 hPa | 0 mm | - | 202 W/m² | - |
* Rain latest hour (hover to see other rain measurements)
** Current wind speed in m/s (hover to see current wind gust speed)